Home > Weather > Gary > Past weeks

Flag for USA Past Weather in Gary, Indiana, USA — Yesterday and Last 2 Weeks

Now
67 °F

Clear.


Feels Like: 67 °F
Forecast: 68 / 85 °F
Wind: No wind

Location: Lansing Municipal Airport

Current Time: Jul 27, 2016 at 4:45:38 AM

Latest Report: Jul 27, 2016 at 4:15 AM


Visibility: 10 mi

Pressure: 30.01 "Hg

Humidity: 86%

Dew Point: 62 °F

Location of GaryLocation

Past Weather in Gary — Graph

°F

Gary Temperature Yesterday

Maximum temperature yesterday: 86 °F (at 3:35 PM)
Minimum temperature yesterday: 67 °F (at 4:35 AM)
Average temperature yesterday: 77 °F

High & Low Weather Summary for the Past Weeks

 TemperatureHumidityPressure
High90 °F (Jul 23, 3:55 PM)99% (Jul 19, 5:55 AM)30.26 "Hg (Jul 19, 5:55 AM)
Low60 °F (Jul 16, 6:15 AM)38% (Jul 14, 1:55 PM)29.77 "Hg (Jul 13, 6:35 PM)
Average76 °F72%30.02 "Hg
* Reported Jul 12 3:15 AM — Jul 27 3:35 AM, Gary, Weather by CustomWeather, © 2016

Note: Actual official high and low records may vary slightly from our data, if they occured in-between our weather recording intervals... More about our weather records

Advertising

Gary Weather History for the Previous 24 Hours

Scroll right to see more
 ConditionsComfort  
Time TempWeatherWind HumidityBarometerVisibility
3:35 AM
Wed, Jul 27
69 °FClear.No wind79%30.00 "Hg10 mi
3:15 AM70 °FClear.No wind76%30.00 "Hg10 mi
2:55 AM69 °FClear.No wind77%30.00 "Hg10 mi
2:35 AM67 °FClear.No wind84%29.99 "Hg10 mi
2:15 AM70 °FClear.No wind76%30.00 "Hg10 mi
1:55 AM69 °FClear.No wind78%30.00 "Hg10 mi
1:15 AM71 °FClear.No wind74%30.00 "Hg10 mi
12:55 AM69 °FClear.3 mph80%30.01 "Hg10 mi
12:15 AM69 °FClear.5 mph82%30.02 "Hg10 mi
11:55 PM
Tue, Jul 26
70 °FClear.5 mph81%30.02 "Hg10 mi
11:15 PM71 °FPassing clouds.3 mph77%30.02 "Hg10 mi
10:55 PM71 °FPartly cloudy.5 mph78%30.02 "Hg10 mi
10:35 PM73 °FPassing clouds.No wind75%30.02 "Hg10 mi
10:15 PM74 °FPassing clouds.No wind65%30.02 "Hg10 mi
9:55 PM76 °FPassing clouds.3 mph57%30.02 "Hg10 mi
9:35 PM77 °FClear.3 mph55%30.02 "Hg10 mi
9:15 PM77 °FClear.No wind55%30.01 "Hg10 mi
8:55 PM77 °FClear.3 mph59%30.01 "Hg10 mi
8:15 PM79 °FPassing clouds.3 mph53%30.02 "Hg10 mi
7:55 PM79 °FScattered clouds.5 mph51%30.02 "Hg10 mi
7:35 PM80 °FSunny.5 mph52%30.01 "Hg10 mi
7:15 PM81 °FSunny.7 mph49%30.01 "Hg10 mi
6:55 PM82 °FSunny.7 mph49%30.01 "Hg10 mi
6:15 PM83 °FSunny.8 mph49%30.00 "Hg10 mi
5:55 PM83 °FSunny.6 mph49%30.00 "Hg10 mi
5:35 PM82 °FSunny.8 mph51%30.00 "Hg10 mi
5:15 PM82 °FPartly sunny.7 mph52%30.00 "Hg10 mi
4:55 PM84 °FPartly sunny.5 mph50%30.00 "Hg10 mi
4:15 PM83 °FScattered clouds.6 mph53%30.01 "Hg10 mi
3:55 PM85 °FScattered clouds.No wind49%30.01 "Hg10 mi
3:35 PM86 °FSunny.6 mph50%30.01 "Hg10 mi
3:15 PM85 °FSunny.3 mph49%30.02 "Hg10 mi
2:55 PM85 °FSunny.7 mph50%30.03 "Hg10 mi
2:35 PM84 °FSunny.3 mph51%30.03 "Hg10 mi
2:15 PM84 °FSunny.No wind49%30.03 "Hg10 mi
1:55 PM84 °FSunny.6 mph52%30.04 "Hg10 mi
1:15 PM82 °FMostly cloudy.5 mph53%30.05 "Hg10 mi
12:55 PM82 °FOvercast.3 mph51%30.05 "Hg10 mi
12:15 PM84 °FPartly sunny.5 mph50%30.06 "Hg10 mi
11:55 AM83 °FBroken clouds.No wind49%30.06 "Hg10 mi
11:35 AM83 °FScattered clouds.3 mph49%30.07 "Hg10 mi
10:55 AM82 °FSunny.5 mph53%30.07 "Hg10 mi
10:35 AM81 °FSunny.5 mph54%30.08 "Hg10 mi
10:15 AM81 °FScattered clouds.6 mph57%30.08 "Hg10 mi
9:55 AM81 °FPartly sunny.3 mph56%30.07 "Hg10 mi
9:35 AM80 °FScattered clouds.5 mph57%30.08 "Hg10 mi
9:15 AM80 °FBroken clouds.No wind56%30.08 "Hg10 mi
8:55 AM79 °FScattered clouds.5 mph57%30.08 "Hg10 mi
8:35 AM78 °FSunny.3 mph59%30.07 "Hg10 mi
8:15 AM77 °FSunny.No wind63%30.07 "Hg10 mi
7:55 AM75 °FScattered clouds.No wind70%30.07 "Hg10 mi
7:15 AM72 °FScattered clouds.No wind77%30.08 "Hg10 mi
6:55 AM70 °FScattered clouds.No wind85%30.07 "Hg10 mi
6:35 AM69 °FScattered clouds.No wind86%30.07 "Hg10 mi
6:15 AM69 °FOvercast.No wind86%30.06 "Hg10 mi
5:55 AM68 °FOvercast.No wind88%30.06 "Hg10 mi
5:35 AM68 °FPassing clouds.No wind90%30.05 "Hg10 mi
5:15 AM68 °FClear.No wind89%30.05 "Hg10 mi
4:55 AM67 °FClear.No wind90%30.05 "Hg10 mi
4:35 AM67 °FClear.No wind90%30.04 "Hg10 mi
4:15 AM68 °FClear.No wind88%30.04 "Hg10 mi
Weather by CustomWeather, © 2016

See weather overviewHow to use our weather pages